GFSSGP_sfc_temp_000.txt.gz
Temp
72 74 75 74 60 55 48 54 62 60 61 66 70 68 64 64 62 51 70 74 73 70 70 76 78 78 77 77 77 76 75 75 75 75 74 74 74 74 75 75 76 76 77 77 78 78 78 78 78
75 80 75 68 55 46 48 59 59 63 68 68 71 67 65 63 71 70 67 73 74 70 68 71 77 77 77 77 76 76 75 75 75 74 73 73 74 74 75 75 75 76 77 77 78 78 78 78 78
80 82 66 59 50 48 49 59 62 66 72 69 66 73 69 64 72 70 71 74 75 68 69 70 77 77 77 77 77 76 75 75 74 74 73 72 73 73 74 74 75 75 77 77 78 78 78 78 78
78 71 68 56 50 55 60 62 66 67 67 70 71 65 70 73 72 73 76 76 74 70 70 73 77 77 77 77 76 76 76 75 74 73 73 72 73 73 73 74 75 75 76 77 77 77 77 77 77
74 67 56 51 55 60 63 68 67 65 67 68 70 64 64 72 75 75 76 77 72 68 68 70 76 77 76 76 76 76 76 75 74 73 73 73 73 73 73 73 74 75 75 77 77 77 77 77 76
68 65 52 49 54 63 63 67 70 68 68 69 65 65 63 72 72 73 72 70 70 70 68 67 77 76 76 76 76 76 75 75 73 72 72 73 72 73 72 73 74 74 75 76 76 77 76 76 75
65 59 53 57 58 59 65 66 67 65 65 66 72 62 64 67 70 71 69 69 68 68 66 65 66 71 75 75 76 74 75 74 73 72 72 71 71 72 72 73 73 74 74 75 75 76 76 75 75
69 63 56 56 57 56 66 68 68 69 67 76 75 61 57 65 69 69 68 66 66 66 66 66 63 63 62 63 71 70 71 70 71 71 71 71 71 71 72 72 72 73 73 75 75 75 75 75 74
75 57 53 56 60 60 64 63 70 73 72 72 71 70 71 71 70 67 64 64 64 68 64 62 61 61 61 62 65 63 65 65 65 64 66 67 59 61 65 68 71 72 73 75 74 75 74 74 74
66 55 61 67 65 63 67 68 71 70 68 66 69 71 71 70 66 63 61 59 61 63 64 60 60 59 60 66 57 57 62 60 60 60 58 56 57 59 64 67 71 73 73 74 75 74 74 74 67
67 62 67 69 70 70 68 67 72 66 61 64 65 66 67 66 63 62 61 59 58 62 62 61 59 58 57 57 55 56 59 59 59 58 59 57 59 59 60 60 62 62 71 66 68 68 66 66 65
65 70 71 70 72 70 68 72 69 66 65 71 71 69 66 63 61 61 60 61 62 61 61 61 59 58 57 56 55 56 58 59 59 56 56 55 57 58 59 59 61 62 63 62 64 64 65 65 67
66 69 72 73 71 69 73 68 68 65 70 73 71 68 64 62 61 61 62 63 61 60 61 60 59 57 57 57 56 55 58 60 57 57 57 57 57 57 58 59 60 61 62 63 63 66 66 66 66
70 70 70 70 69 69 68 68 67 67 71 72 68 65 64 63 62 61 62 61 60 60 60 60 59 58 57 56 56 56 57 57 57 56 57 59 58 57 58 59 59 61 61 62 65 66 65 65 66
70 63 64 67 69 66 69 63 64 69 71 69 67 65 64 63 64 62 61 60 59 59 59 60 59 58 57 56 57 57 57 57 57 57 59 60 59 59 59 59 60 60 62 64 65 65 64 64 65
66 61 53 63 68 67 67 55 67 68 68 65 66 65 63 62 63 63 64 61 59 58 59 59 62 58 57 57 57 58 58 57 57 58 59 61 62 62 61 60 61 64 64 64 64 64 63 63 64
58 51 54 60 69 67 62 57 64 66 67 64 64 62 62 61 62 62 65 62 60 59 59 59 59 60 58 57 57 57 58 58 58 59 59 61 63 64 62 62 63 64 64 63 64 63 64 63 62
52 53 59 58 64 64 59 59 63 65 66 63 61 60 60 60 61 65 64 63 61 61 60 59 60 59 58 57 57 57 57 58 59 60 61 63 63 64 63 61 63 63 62 62 62 62 63 64 63
63 60 58 61 67 62 59 58 62 63 64 60 59 58 57 59 62 64 64 63 62 61 61 60 60 59 58 56 55 56 56 57 59 60 62 62 63 63 63 63 63 63 62 62 63 62 62 62 63
62 58 58 63 66 62 59 59 61 63 64 62 59 57 57 58 60 63 62 61 61 61 60 60 59 59 58 56 57 57 57 58 58 59 60 61 64 63 63 63 63 64 62 63 63 63 61 62 62
60 58 58 60 62 63 59 54 59 63 62 63 61 61 59 58 58 60 62 60 60 60 59 60 59 59 59 58 58 57 58 58 58 58 60 61 64 64 63 63 64 64 63 62 62 63 63 60 61
55 65 66 63 55 47 59 41 54 57 59 60 61 57 57 58 59 60 60 59 60 61 61 61 60 59 60 58 57 56 55 56 57 58 60 62 64 64 64 63 63 63 63 63 62 63 61 63 59
61 66 64 62 54 50 53 42 52 57 54 55 57 58 57 58 59 59 60 62 62 62 61 60 60 61 59 58 57 57 56 56 58 59 60 61 62 63 63 63 63 62 62 64 63 62 62 61 60
70 62 59 54 49 39 51 48 46 52 59 57 59 60 60 58 59 60 61 62 62 61 61 60 61 61 61 60 57 58 58 58 58 58 58 57 59 61 63 64 63 63 63 63 63 63 62 61 61
61 51 41 36 36 36 53 48 53 59 63 63 59 60 60 61 57 58 59 59 60 61 60 60 60 59 60 61 59 57 57 57 57 57 58 59 59 62 61 63 63 63 63 63 63 62 62 62 61
57 53 42 35 34 45 54 46 53 62 69 68 66 62 61 58 58 59 60 60 61 62 61 61 59 58 59 60 59 59 59 59 58 59 59 59 59 60 62 62 64 64 64 63 62 60 61 61 61
57 51 58 48 48 44 47 56 60 61 63 62 60 60 59 58 58 59 60 61 60 61 60 60 59 58 59 59 59 59 59 60 59 59 59 59 61 63 62 62 62 62 63 63 64 63 61 61 61
64 64 50 44 36 35 44 51 46 55 57 59 58 59 59 58 60 58 60 60 60 61 60 60 60 60 59 58 59 60 59 60 59 60 60 61 61 62 62 63 63 63 62 63 65 63 62 62 60
57 51 50 49 48 37 33 43 55 59 61 58 59 61 60 59 61 59 60 61 61 61 61 60 60 61 59 60 59 59 59 60 60 59 59 60 61 62 62 62 63 62 61 61 62 62 63 61 60
60 55 51 43 44 47 45 42 61 61 63 64 62 63 62 63 62 61 61 60 60 61 61 60 60 61 61 60 60 59 60 59 58 59 59 60 61 62 62 62 62 61 60 60 60 59 59 60 59

GFSSGP_sfc_temp_003.txt.gz
Temp
71 73 72 73 59 53 47 53 59 58 59 64 65 64 61 61 60 50 66 71 73 70 69 75 78 78 78 77 77 77 76 75 75 75 75 74 74 74 74 75 75 76 77 77 77 78 78 77 78
73 77 73 65 52 45 47 56 56 60 65 65 65 63 62 59 66 66 65 71 72 70 67 70 77 77 77 77 77 77 76 75 75 75 75 74 74 74 74 75 75 75 77 77 77 78 78 78 78
76 79 65 57 48 47 48 57 60 64 68 67 63 68 65 62 67 67 70 73 70 67 67 69 77 77 77 77 77 76 76 75 75 75 74 73 73 73 73 74 75 75 76 77 77 78 78 78 77
75 70 65 54 50 55 57 61 62 62 65 67 66 62 66 70 70 72 74 73 70 67 67 71 77 77 77 77 77 76 76 76 75 75 74 73 73 73 73 73 73 75 76 77 78 78 78 78 77
72 64 54 50 52 58 60 63 63 62 62 64 64 61 61 70 73 73 70 74 69 66 65 69 76 77 77 77 77 77 76 76 76 74 74 73 73 73 73 73 74 74 76 76 77 77 77 77 77
64 62 50 47 53 61 60 64 65 63 63 62 63 61 61 69 68 69 69 67 67 66 63 65 75 76 76 77 77 76 75 75 75 74 72 72 73 73 73 73 73 74 75 76 76 77 76 76 75
64 57 51 53 54 56 62 66 64 64 63 63 66 59 60 65 67 67 65 65 65 66 65 63 64 68 72 73 74 73 72 72 74 74 73 72 73 72 72 73 73 74 74 75 74 76 76 75 75
66 61 52 55 55 55 65 66 66 66 66 73 70 58 55 63 67 65 64 62 62 64 64 63 60 61 61 62 70 69 69 69 70 70 71 72 71 72 73 72 72 73 74 74 74 75 75 75 74
69 55 50 55 57 59 61 61 66 70 68 67 67 66 67 68 66 63 60 62 61 66 61 59 59 59 59 61 63 63 65 67 66 65 66 66 61 61 66 67 70 71 73 73 73 74 74 74 74
63 53 56 63 62 61 63 65 68 66 64 63 64 67 68 66 62 61 58 57 58 60 61 58 58 58 58 64 57 56 58 58 60 59 59 58 58 58 62 66 69 72 73 72 73 74 74 73 66
63 59 65 66 66 66 65 66 69 63 58 63 62 64 65 62 59 59 57 56 55 57 60 60 58 58 56 56 55 55 56 59 59 58 59 59 60 57 58 59 60 61 66 64 68 67 65 65 65
61 69 68 70 68 67 65 69 65 64 64 69 67 65 63 60 58 58 58 58 57 58 58 60 58 57 56 55 55 55 58 59 59 56 58 57 56 56 57 58 59 60 61 61 62 62 64 63 65
61 66 70 71 68 67 69 65 65 63 67 68 67 65 60 58 59 58 60 59 56 56 58 58 58 56 56 56 55 55 58 59 57 55 56 56 55 56 57 58 58 59 60 61 61 63 65 65 66
70 68 69 67 67 67 65 63 65 64 68 66 65 61 60 60 60 58 59 57 56 57 58 58 58 57 56 55 55 55 55 56 56 55 56 58 56 56 57 57 58 59 60 61 62 63 65 65 66
70 63 66 64 65 65 67 61 62 66 67 64 62 61 60 60 61 60 59 57 56 57 57 58 58 58 55 55 56 56 56 56 55 56 58 59 58 57 58 58 58 59 60 63 62 64 65 65 66
64 60 53 63 66 66 66 55 64 65 64 61 61 61 60 59 61 60 60 58 57 56 58 58 60 57 56 56 56 56 56 56 56 57 57 59 60 60 58 58 59 60 62 63 64 64 64 64 65
58 52 55 60 67 64 61 57 63 64 64 60 59 58 59 58 59 58 61 59 58 58 58 58 57 57 56 56 56 56 56 57 58 58 58 60 62 62 60 61 60 63 64 63 64 63 64 63 64
52 53 56 57 62 62 58 59 62 62 62 59 58 57 57 57 59 60 60 61 59 59 58 58 58 57 57 56 56 57 57 58 58 59 60 61 61 62 60 62 62 63 63 63 63 63 64 63 63
61 57 56 59 65 61 59 58 61 61 59 57 56 55 55 56 60 60 61 61 60 60 58 58 58 57 56 55 55 55 56 57 57 58 60 60 61 62 61 62 63 63 62 63 64 63 62 62 63
58 55 54 59 63 60 58 58 59 60 61 57 56 55 55 55 58 59 59 58 59 59 58 58 58 58 56 55 55 55 56 57 57 58 59 62 62 63 62 62 62 62 62 63 63 63 62 62 62
57 54 55 56 60 59 54 52 54 59 60 59 58 57 56 56 56 58 59 57 58 59 58 59 58 58 57 57 56 57 57 58 59 59 59 60 62 63 62 63 62 62 62 62 62 63 63 60 62
52 62 61 59 53 46 56 40 50 54 57 57 57 54 55 56 56 57 58 56 57 59 59 59 59 57 58 56 57 56 55 55 57 59 59 61 62 63 63 63 62 61 62 61 62 61 61 63 59
59 65 60 57 51 46 48 40 49 51 51 52 55 56 54 56 56 56 58 60 59 60 59 58 58 58 57 57 57 57 57 57 59 59 60 59 61 62 63 63 62 62 62 63 63 62 62 61 60
68 57 55 49 45 37 48 45 44 49 54 54 56 58 57 56 56 57 59 60 59 59 59 58 58 58 57 57 58 58 57 58 57 56 57 58 60 61 63 63 62 62 62 62 62 63 62 61 61
57 49 39 35 35 35 50 45 48 57 59 59 58 57 57 57 55 55 56 57 58 58 58 58 58 57 57 57 57 58 57 56 58 57 58 58 58 60 61 62 62 62 62 63 63 62 62 61 61
54 53 40 34 33 44 50 43 52 60 63 63 63 61 58 55 54 55 57 57 59 59 58 58 58 57 57 57 56 57 58 57 57 58 58 58 59 60 62 61 61 61 62 62 62 61 61 61 61
55 49 55 46 43 40 44 50 57 57 59 58 56 57 56 56 54 56 57 57 58 59 58 58 57 56 57 58 57 57 58 59 58 58 58 57 59 61 63 61 60 61 61 61 60 59 59 61 60
60 61 48 42 34 33 41 45 46 54 56 54 54 54 56 55 54 56 57 57 58 59 58 58 58 57 58 57 57 58 58 59 59 59 59 59 59 60 61 60 59 59 59 60 60 59 59 59 59
54 50 48 47 43 36 31 40 54 55 54 55 57 58 57 57 57 58 56 58 59 57 57 58 58 57 57 56 56 57 58 58 59 59 59 59 59 60 61 61 60 60 60 60 60 58 59 59 58
58 54 50 43 40 43 41 41 56 56 60 57 57 60 60 60 59 58 57 57 57 58 57 58 58 58 58 58 58 57 57 58 58 58 58 59 59 59 60 60 60 61 59 57 59 58 58 58 57

GFSSGP_sfc_temp_006.txt.gz
Temp
71 71 71 71 59 53 46 53 57 56 58 61 64 62 60 60 58 49 66 69 71 69 68 73 77 78 78 78 78 77 77 76 76 75 75 75 75 75 75 75 75 75 76 77 77 77 78 78 78
71 75 72 64 52 45 48 54 56 60 62 62 63 60 59 58 64 63 63 70 72 70 66 69 77 78 78 78 77 77 77 76 75 75 75 75 74 74 75 75 75 75 76 77 78 77 78 78 78
75 76 65 55 48 46 48 56 60 61 64 62 60 64 63 60 65 65 69 71 70 67 66 68 77 77 78 78 77 77 77 76 76 75 75 75 74 74 74 74 75 75 76 77 78 78 78 78 78
73 69 64 54 50 54 56 59 60 60 62 64 64 60 64 69 68 71 72 70 67 67 65 69 76 77 77 77 77 76 77 76 76 76 75 75 74 73 73 73 74 74 75 76 77 78 78 78 78
69 63 53 48 52 56 59 61 62 62 60 61 63 59 59 68 71 70 68 69 67 64 64 67 75 76 77 77 77 77 76 76 76 76 76 75 74 74 73 73 74 74 74 76 77 77 77 77 77
63 60 50 48 53 59 61 63 63 62 62 60 60 60 59 67 67 65 65 64 65 64 62 64 73 75 76 77 77 76 76 75 75 75 75 74 73 74 73 73 74 74 74 75 76 76 77 76 76
61 56 50 50 53 56 61 63 61 61 59 61 64 58 59 62 63 63 63 63 63 63 64 62 62 66 70 72 74 73 72 72 72 72 74 74 73 73 72 72 73 73 74 74 75 75 75 75 75
64 59 49 53 53 54 63 61 60 63 62 68 68 57 55 61 63 63 62 62 61 62 62 61 59 60 60 60 68 70 69 69 70 69 71 71 72 72 72 72 72 73 74 74 75 74 75 75 74
65 54 48 53 53 58 57 57 62 67 66 65 64 63 64 64 64 62 58 60 60 63 60 58 59 59 59 61 62 63 64 66 67 65 65 65 61 61 66 68 71 72 73 73 74 73 74 74 73
62 51 55 62 61 60 60 62 65 63 62 60 61 64 65 64 61 59 56 56 57 59 59 58 58 58 58 62 57 56 58 59 59 60 59 59 59 59 62 66 70 71 72 73 73 73 73 73 68
61 58 62 67 67 65 63 60 65 61 57 61 60 62 62 60 58 58 56 55 55 57 59 59 58 57 56 56 56 55 57 59 60 60 59 60 60 59 60 60 62 62 66 64 68 69 68 67 67
59 67 66 68 69 64 63 66 64 62 64 67 64 63 60 58 57 57 56 55 57 57 58 58 58 56 56 55 55 55 58 59 59 59 59 58 58 58 57 58 60 61 62 62 63 63 64 66 66
62 66 67 68 65 66 67 65 63 63 66 66 64 63 59 57 58 57 58 56 57 56 57 57 57 56 56 55 55 55 58 59 59 57 57 58 58 57 58 58 59 60 61 62 62 64 65 65 66
69 67 66 64 61 62 64 61 62 65 65 64 62 59 58 58 58 57 57 55 57 57 57 57 57 57 56 55 55 55 56 55 58 56 56 58 57 56 57 59 59 60 61 62 62 64 65 65 67
66 62 66 65 63 63 66 60 61 65 64 61 60 59 58 58 59 59 58 57 56 56 57 57 58 57 56 55 55 56 56 56 56 57 58 58 58 58 59 59 59 60 61 62 63 64 65 65 66
62 58 52 62 65 66 65 54 64 64 62 58 59 59 58 58 59 59 59 58 57 56 57 57 60 57 56 55 55 56 57 57 58 58 58 60 60 60 59 59 59 60 61 62 63 64 64 64 65
58 53 54 59 65 62 60 58 62 61 62 58 57 57 57 57 57 58 60 59 57 57 57 58 57 57 57 57 57 57 58 58 59 59 60 61 62 62 59 60 62 64 63 63 63 64 64 64 64
51 52 55 55 61 60 57 58 61 61 61 58 56 56 56 56 57 59 59 60 58 58 57 58 57 57 57 57 57 58 58 58 59 59 60 61 62 62 63 61 62 64 62 63 63 63 64 64 63
59 55 54 58 64 59 58 58 64 59 58 56 54 54 53 55 58 59 59 59 59 58 58 57 57 57 56 57 56 56 56 57 58 59 61 62 62 61 63 63 62 64 62 63 64 64 63 62 63
55 52 51 57 59 57 57 56 57 58 58 59 55 53 53 54 56 58 58 57 58 58 58 58 58 57 57 56 56 56 57 58 59 60 61 62 62 63 62 63 62 63 62 63 64 63 62 62 63
55 51 52 53 55 56 52 50 53 58 56 57 55 56 54 54 54 56 57 56 57 58 57 59 58 57 56 57 57 58 59 59 60 60 60 61 63 63 63 63 62 62 63 62 63 63 63 61 62
50 59 58 55 50 43 53 38 50 53 54 55 54 52 54 54 55 56 56 56 56 59 58 58 58 57 58 57 58 57 57 57 59 60 60 61 62 63 63 62 62 62 62 62 63 62 63 62 60
56 60 57 54 48 44 46 39 47 49 52 54 53 53 53 54 55 56 56 58 57 59 58 57 59 58 58 59 59 59 58 58 59 59 60 60 62 63 63 63 63 63 62 62 62 62 62 63 61
63 56 51 46 43 35 46 43 43 48 54 55 53 55 54 54 55 56 57 57 57 58 58 57 58 58 58 59 60 59 58 58 57 58 58 59 60 62 63 63 62 63 62 63 63 62 62 61 61
56 47 37 33 33 34 46 43 47 57 59 59 57 55 55 56 54 54 55 55 56 57 58 57 58 58 58 58 59 59 58 58 59 59 58 59 60 61 62 62 62 62 62 63 63 62 61 62 61
51 49 39 32 31 39 46 41 51 58 59 59 59 57 56 55 55 54 55 55 57 58 58 58 58 58 57 58 59 58 59 58 57 59 59 59 60 61 62 62 63 62 63 64 63 62 61 61 60
51 47 52 43 40 38 41 48 55 57 56 55 53 54 54 54 53 54 55 55 56 57 57 58 58 57 58 58 57 59 58 59 59 58 59 59 60 62 62 62 61 62 62 63 62 62 61 62 62
58 59 46 40 34 32 39 42 44 53 56 54 52 51 53 54 53 54 55 55 56 57 57 58 58 58 58 57 57 59 59 60 59 58 58 60 61 62 60 59 60 59 60 61 61 60 61 60 61
51 47 46 46 41 34 30 38 50 54 57 56 54 53 54 55 56 55 55 56 57 56 56 57 57 57 57 57 57 58 59 59 59 58 58 59 60 61 60 60 60 60 60 60 59 59 62 60 60
58 52 50 41 40 40 39 42 55 55 57 59 57 55 54 57 57 56 56 55 56 56 56 57 57 58 57 57 57 58 59 59 59 59 59 59 60 61 61 62 61 60 60 60 61 60 61 60 60

GFSSGP_sfc_temp_009.txt.gz
Temp
78 81 82 82 72 73 67 68 71 71 72 76 77 74 74 74 69 67 79 80 81 83 82 81 78 79 79 78 78 78 77 77 77 76 76 76 76 75 75 75 75 75 76 77 78 78 78 78 78
82 80 83 80 70 66 69 69 70 75 75 75 75 74 72 72 75 76 79 83 85 85 80 81 78 78 79 78 78 77 77 77 77 76 76 76 76 75 75 75 75 75 76 77 77 78 78 78 78
83 84 81 75 68 66 66 70 74 75 76 75 74 75 74 72 74 77 83 84 83 83 83 79 77 77 78 78 78 77 77 77 77 76 76 76 76 75 75 75 75 75 76 77 78 78 78 78 78
84 84 78 71 65 69 70 75 74 74 75 76 76 72 75 79 77 81 82 81 81 83 81 79 76 77 77 78 78 77 77 77 77 76 76 75 76 75 74 74 74 75 75 76 77 77 78 78 78
85 81 72 67 66 69 73 75 75 75 76 75 75 72 72 78 80 79 79 80 80 82 80 80 74 76 77 77 77 77 76 76 76 76 76 77 76 75 75 74 74 74 75 75 76 77 77 77 77
79 78 68 65 67 70 74 77 75 76 77 72 73 71 73 79 78 77 78 77 79 78 77 77 75 74 75 76 76 76 75 74 74 74 75 75 75 74 74 74 74 74 74 75 75 76 76 76 76
76 74 67 66 67 69 72 75 73 76 75 75 76 70 74 76 74 75 76 77 77 77 77 76 75 73 72 71 72 72 73 72 71 71 71 72 73 74 73 74 74 74 74 74 75 75 76 75 75
80 76 65 67 67 68 74 74 75 76 76 76 78 72 71 74 74 76 79 78 78 78 78 75 73 75 73 74 70 70 70 69 69 70 70 70 71 71 72 73 72 72 74 74 74 74 75 74 74
78 70 66 67 67 72 75 74 74 77 75 74 74 73 73 74 75 76 76 76 78 77 75 73 74 72 72 72 71 68 66 66 66 67 66 67 70 71 71 72 72 72 73 74 74 74 74 73 74
75 68 68 75 76 75 76 76 76 74 71 72 72 71 72 74 74 74 73 74 73 74 74 73 71 70 70 71 69 68 68 68 66 67 67 68 68 68 67 68 70 71 72 73 73 73 74 73 77
74 70 76 76 79 79 76 72 77 74 69 75 74 71 71 72 71 71 73 72 72 72 74 73 70 69 69 69 70 70 68 65 64 64 65 65 65 64 65 67 73 71 72 75 75 75 74 74 77
70 75 77 79 77 74 73 76 73 74 79 77 77 75 72 70 70 71 71 72 73 72 72 71 70 68 68 69 70 69 65 67 68 65 65 61 61 64 62 65 71 70 72 72 73 72 73 73 75
71 76 75 76 75 75 75 73 75 73 76 75 74 71 71 70 70 70 71 71 71 71 71 70 69 68 67 66 68 68 67 67 65 66 65 61 62 63 65 67 69 70 72 72 72 72 72 73 75
77 75 75 75 74 74 74 72 72 76 73 72 71 72 70 70 70 70 69 70 70 70 71 70 69 68 68 67 65 66 65 66 64 62 67 66 67 66 66 68 69 71 72 73 72 72 70 71 72
75 71 73 74 75 74 75 70 69 77 73 71 70 69 69 69 70 70 71 70 70 71 70 69 68 69 67 66 67 66 66 65 66 68 68 68 67 66 66 68 69 68 68 71 72 72 72 71 70
71 69 65 71 72 73 74 65 75 76 70 69 68 68 67 68 70 71 71 70 70 70 70 69 70 70 67 66 67 68 67 65 66 68 69 69 68 68 68 69 70 69 70 69 74 74 73 71 69
67 62 64 65 72 71 71 66 75 72 70 70 67 67 67 68 68 70 71 71 70 70 69 70 69 69 67 67 67 68 68 66 66 68 69 69 69 68 68 70 70 70 65 72 73 72 72 69 65
62 61 62 63 70 69 68 66 75 74 70 68 67 66 67 67 68 70 70 71 71 71 69 69 70 68 67 68 68 70 71 68 68 66 66 69 70 68 69 66 67 66 67 69 72 71 69 69 65
69 65 63 66 72 67 67 67 70 73 68 67 66 66 65 66 70 70 70 71 70 70 70 69 69 67 67 69 69 66 66 64 68 63 62 65 68 66 68 67 66 68 66 70 71 69 68 63 65
66 63 63 66 68 67 67 66 71 71 70 70 68 66 66 66 68 69 69 70 70 69 69 70 70 68 67 68 68 63 64 65 63 62 63 65 66 65 68 69 69 69 67 68 68 69 66 64 65
64 63 62 63 65 67 64 63 67 73 69 68 69 70 68 67 67 68 68 69 71 70 69 70 70 68 68 67 68 64 67 65 64 62 63 62 66 64 66 68 68 68 67 66 68 67 66 61 65
61 68 66 63 61 57 65 53 63 70 68 68 69 66 66 67 68 69 69 69 70 71 70 69 70 68 69 68 68 64 65 62 63 63 65 63 66 65 65 65 66 64 66 67 66 67 64 65 62
66 68 66 64 61 58 59 54 64 63 66 72 74 67 66 68 68 68 69 71 72 71 71 71 70 69 68 68 68 67 65 67 66 66 66 67 68 65 69 64 63 63 64 66 63 64 63 67 71
72 65 61 59 59 51 59 58 61 66 69 73 73 68 66 68 69 70 71 71 71 72 71 70 70 68 68 69 69 67 66 68 62 65 64 64 63 67 68 68 66 64 65 65 64 67 68 67 69
68 62 53 49 50 50 56 55 62 71 73 71 71 70 66 67 69 69 68 69 70 70 71 70 70 69 68 69 70 68 67 67 65 60 60 61 63 63 64 66 64 63 64 65 64 63 66 65 65
64 64 55 42 47 53 55 53 63 71 69 69 69 69 67 67 69 69 70 70 71 71 71 71 70 70 69 69 70 69 69 71 70 65 61 62 63 63 64 64 65 66 64 65 67 65 66 66 64
61 59 67 58 54 53 58 61 67 68 70 67 65 63 63 66 68 69 70 70 71 71 70 70 70 70 70 69 70 69 69 69 68 66 62 65 63 65 67 65 68 69 68 65 64 66 66 62 62
67 69 56 58 46 43 53 54 59 67 70 68 63 62 63 66 68 69 71 70 71 72 71 70 71 71 70 70 70 70 69 69 69 69 64 66 66 65 66 62 61 63 67 64 64 65 65 67 67
63 61 60 61 58 50 47 55 68 68 70 69 68 66 65 66 69 70 71 72 72 72 72 70 70 70 70 70 70 70 69 69 70 69 69 66 68 69 67 66 63 62 65 66 67 68 69 70 69
70 65 65 56 52 56 55 56 70 69 70 70 68 66 68 69 70 72 72 72 71 71 71 70 71 71 72 71 70 70 70 69 69 69 70 71 70 71 71 70 69 67 66 67 68 69 70 70 69

GFSSGP_sfc_temp_015.txt.gz
Temp
82 93 100 96 81 84 81 84 89 87 87 92 92 89 87 89 83 75 94 96 96 96 95 89 79 79 79 79 79 79 78 78 78 78 78 77 77 76 77 76 76 77 77 77 77 78 78 78 79
100 98 97 91 79 76 79 88 84 89 92 92 91 89 87 83 92 92 94 95 96 96 93 93 79 79 79 79 78 78 78 78 78 78 78 77 77 76 76 76 76 77 77 77 77 78 78 78 78
96 100 90 86 82 77 78 87 89 91 92 91 89 91 88 85 89 93 96 95 96 94 96 92 80 78 79 79 79 78 78 78 78 78 78 77 77 77 76 76 76 76 77 78 78 78 77 78 78
96 96 93 80 78 82 83 88 90 90 92 93 92 85 90 93 91 95 96 96 95 97 97 85 80 77 78 78 78 78 78 78 78 78 77 77 77 76 75 75 76 76 76 77 77 78 77 77 78
98 94 82 79 81 87 88 91 91 88 90 91 91 85 86 91 94 95 94 94 93 95 95 94 78 76 77 77 77 77 76 77 76 76 76 76 76 76 76 76 75 76 76 76 76 76 77 76 77
89 93 78 77 80 84 90 92 91 90 91 92 87 87 87 95 92 94 94 93 94 91 90 90 81 77 74 73 73 74 74 74 74 74 74 74 74 74 75 75 75 75 75 76 76 76 76 76 75
85 85 80 81 82 84 86 92 89 89 90 89 93 82 89 91 94 93 93 92 91 91 91 89 88 85 77 76 74 73 72 72 72 72 72 72 73 73 73 74 74 74 74 75 75 75 75 75 76
91 88 80 82 80 80 90 89 94 90 88 95 93 82 84 91 93 93 94 94 93 94 93 89 88 89 86 85 77 75 72 72 71 70 71 71 71 71 72 72 73 74 74 75 75 75 75 75 75
96 80 77 81 82 84 91 88 94 95 91 91 92 90 91 93 93 92 92 93 94 93 91 90 89 85 84 84 83 75 75 74 73 72 71 71 74 76 76 75 75 75 73 75 74 75 75 75 75
86 79 81 89 89 85 89 91 92 89 88 87 88 91 89 91 91 90 89 89 90 89 89 89 84 82 81 84 83 82 80 78 78 75 73 73 74 74 75 73 73 72 73 73 73 73 74 75 81
87 77 86 87 90 91 89 89 92 88 84 89 86 90 89 90 89 89 91 89 87 87 88 87 82 80 80 82 82 81 78 78 71 73 70 71 73 73 72 75 77 75 73 74 75 75 78 79 81
82 87 87 88 91 90 88 91 87 88 89 93 92 93 92 88 88 88 89 88 87 86 85 84 82 80 79 80 80 81 78 74 75 73 69 71 72 68 71 72 73 73 77 74 73 74 79 79 81
83 84 88 92 92 91 92 86 87 88 93 94 93 91 90 89 88 89 88 87 85 83 83 82 81 79 78 74 75 76 73 71 77 77 77 71 71 70 73 72 72 72 73 72 73 71 77 80 81
88 89 89 90 90 90 85 86 85 89 91 90 90 89 88 88 88 87 85 83 83 82 82 82 80 79 79 74 74 71 71 71 79 80 78 73 71 70 69 69 70 71 74 78 73 77 75 80 78
90 82 86 87 88 86 89 80 82 90 91 88 86 88 89 89 90 86 85 82 82 83 82 80 80 81 78 74 76 75 73 77 77 80 77 76 73 71 70 70 69 71 67 70 71 71 76 77 76
83 83 75 86 87 87 84 73 87 92 89 86 88 89 88 88 87 87 86 82 82 81 80 80 82 80 79 77 78 77 78 76 74 77 77 77 76 74 71 70 71 73 71 73 76 74 76 71 74
79 71 74 78 88 85 82 76 87 91 89 86 87 88 87 86 85 85 85 83 82 81 80 79 79 80 77 77 78 77 75 74 72 71 66 74 75 76 73 69 70 73 72 74 74 76 74 70 75
71 73 76 75 82 83 80 79 86 89 88 87 87 87 87 85 84 85 83 84 82 81 80 78 79 79 76 78 75 76 73 71 71 70 69 72 72 75 74 73 71 73 70 70 72 73 71 73 73
79 77 75 80 85 81 78 78 83 87 88 87 87 87 86 85 87 85 83 82 81 80 79 78 77 77 76 76 76 77 71 72 72 73 71 71 74 75 73 72 73 72 70 71 72 71 71 70 70
78 75 75 80 84 80 77 76 82 85 86 87 87 87 86 85 84 83 81 80 80 79 78 78 78 76 77 75 74 75 74 74 71 74 70 71 72 75 73 74 74 75 71 71 71 71 68 69 72
76 74 74 74 80 81 76 73 78 85 87 89 89 89 89 85 82 81 80 79 80 79 78 78 77 76 76 76 76 74 75 71 69 68 71 71 73 75 74 75 74 75 73 67 71 72 71 70 69
71 81 78 75 72 66 79 62 74 81 82 85 87 88 87 85 84 82 80 79 79 80 80 79 78 77 78 77 77 72 68 67 68 68 66 67 73 72 73 74 73 73 72 71 71 72 73 73 67
76 83 79 76 71 70 71 66 73 81 78 81 85 88 87 86 84 81 81 80 81 81 80 80 79 77 78 76 76 73 67 70 69 69 66 67 69 71 73 72 74 73 71 72 72 71 71 73 73
84 79 78 76 72 60 69 68 69 76 78 81 85 87 87 86 84 83 83 82 81 82 81 80 78 77 78 78 76 75 71 69 68 69 66 65 68 69 73 73 71 72 73 72 71 72 72 73 71
81 73 61 57 58 57 73 68 71 80 83 83 83 86 86 85 84 82 80 81 80 80 80 80 79 77 78 78 77 76 75 70 68 68 70 65 66 66 69 70 71 71 71 73 72 72 72 71 71
76 72 63 50 55 63 73 62 73 83 85 86 86 85 86 83 84 82 82 81 81 80 80 81 79 78 78 78 77 77 75 72 72 70 69 66 69 67 66 70 71 72 73 72 72 70 71 71 70
75 68 78 67 69 65 68 73 79 82 83 84 84 82 81 82 82 82 83 82 82 80 79 79 79 79 79 78 77 76 76 74 72 70 69 68 70 71 70 72 72 73 73 73 72 70 70 70 69
80 81 66 69 53 52 64 66 70 74 79 82 81 80 80 82 82 83 83 81 82 81 80 80 80 79 79 79 79 78 78 76 74 73 67 66 67 69 69 70 68 70 72 72 71 70 70 69 68
75 73 73 72 69 58 56 65 79 78 81 80 83 83 82 82 83 83 84 83 83 82 82 80 80 80 79 79 78 78 78 78 77 76 74 74 71 66 66 66 69 68 70 70 69 68 69 69 66
80 75 74 65 60 68 67 67 83 82 84 84 84 85 85 84 85 85 85 83 83 82 82 80 80 81 80 80 79 78 79 78 77 76 75 74 74 71 67 66 64 66 71 71 70 67 68 68 64

GFSSGP_sfc_temp_021.txt.gz
Temp
73 76 76 76 61 61 57 68 79 77 73 78 83 80 74 75 73 59 77 83 82 78 76 78 79 79 79 78 78 78 78 77 77 78 78 77 77 77 77 77 76 76 77 77 78 78 77 78 78
78 83 79 73 58 51 57 73 76 74 80 82 83 81 76 73 82 79 79 84 82 78 74 77 78 78 79 78 78 78 78 78 77 77 77 77 77 77 77 77 77 77 77 77 77 78 78 77 78
81 86 69 63 58 56 61 73 80 82 83 81 78 84 80 75 83 80 82 85 81 77 77 77 79 78 78 78 78 78 77 77 77 77 77 77 77 77 77 76 77 77 77 77 77 78 78 78 77
80 76 73 60 58 68 70 78 81 78 82 83 82 76 81 84 83 84 86 87 82 78 78 78 78 78 78 78 78 77 77 77 77 77 78 77 77 77 76 76 76 76 77 77 77 77 78 78 77
78 72 60 58 63 73 79 83 82 79 80 81 82 75 74 82 86 85 85 86 80 73 74 75 78 78 78 78 77 77 75 75 75 76 77 77 77 76 76 76 76 76 77 76 76 77 77 76 77
69 71 57 59 66 78 80 81 84 82 81 78 79 74 73 83 83 82 83 81 79 76 72 75 78 77 77 77 77 75 75 74 74 74 74 74 75 75 75 75 75 76 76 77 76 76 76 75 75
65 61 60 64 68 73 79 83 80 82 78 77 82 74 72 80 82 81 79 78 80 81 78 73 72 75 78 76 76 75 75 74 74 73 73 73 73 73 73 74 74 75 75 75 76 75 76 75 75
74 65 63 67 67 69 82 82 84 81 81 88 88 75 68 77 81 79 78 78 78 77 76 73 69 70 69 68 76 75 75 74 74 73 72 72 72 72 72 73 73 74 74 75 75 75 75 75 74
82 63 61 66 69 72 80 78 86 89 82 84 85 82 81 82 81 78 74 73 73 77 73 71 71 70 69 71 72 75 76 75 74 72 73 71 63 63 67 71 73 73 73 74 75 74 74 74 74
73 62 67 76 78 75 78 79 82 83 81 82 81 83 84 83 79 75 73 76 75 74 70 69 70 68 69 75 68 66 69 67 65 66 65 63 62 62 68 71 74 74 74 73 74 73 73 74 66
75 67 75 78 82 82 78 78 83 81 74 78 77 78 79 78 75 76 76 73 73 72 71 69 69 68 68 67 65 64 64 64 64 66 64 62 63 61 62 62 64 62 69 64 67 66 68 67 65
71 77 79 81 84 82 77 82 81 80 78 85 84 81 79 77 74 75 75 73 72 71 69 69 69 68 66 65 64 63 64 64 63 63 64 61 60 60 60 60 61 61 62 62 62 62 63 65 66
74 77 82 84 84 78 82 80 80 79 84 87 87 81 77 75 75 73 76 72 71 68 69 68 69 66 67 65 64 63 63 63 63 63 63 62 60 59 60 60 60 60 61 61 61 62 63 65 65
79 80 80 82 81 79 79 80 79 81 84 85 84 79 79 77 75 74 75 71 69 70 70 69 69 67 67 64 64 63 63 63 63 63 64 66 61 60 60 60 61 60 60 60 62 63 63 66 63
78 73 77 79 79 77 82 73 74 81 84 81 80 80 79 78 77 75 73 71 69 69 70 69 69 67 66 65 64 64 63 64 62 62 64 67 63 61 61 61 61 61 60 61 61 62 64 64 63
69 71 63 73 77 81 77 65 75 80 79 77 80 80 80 76 77 73 72 70 69 69 68 69 73 67 65 65 64 64 63 63 62 62 63 66 65 63 61 60 61 62 60 60 60 60 60 61 61
65 57 61 67 79 78 75 69 76 81 80 76 76 77 78 74 72 71 72 69 69 69 68 67 68 66 65 65 64 64 64 63 63 63 62 64 65 66 62 61 61 62 60 60 60 60 60 60 60
56 57 64 64 73 75 73 70 74 78 78 75 74 75 76 72 71 72 71 71 68 68 68 68 67 66 66 64 64 63 63 63 63 62 62 64 62 67 63 62 62 62 60 60 60 60 60 60 59
66 64 63 69 76 73 69 69 72 76 75 74 73 72 72 70 70 72 71 70 68 67 67 66 66 65 64 62 61 61 61 61 62 62 63 63 64 65 63 61 63 61 60 61 60 59 59 59 60
66 63 62 70 76 72 70 68 71 73 74 74 73 72 71 68 70 71 68 67 66 66 66 65 66 65 64 63 63 62 63 62 62 62 62 63 64 65 64 62 60 61 60 60 60 60 59 60 60
65 62 63 64 71 74 68 62 68 75 74 77 76 74 71 70 68 68 68 65 65 65 65 66 65 66 65 65 63 62 62 61 61 62 61 62 65 66 68 63 62 62 60 59 59 60 60 57 59
60 71 70 68 64 52 66 47 60 67 69 74 76 72 69 69 69 68 67 64 65 66 66 66 66 66 66 66 62 61 59 58 60 62 60 61 63 65 66 65 64 62 61 60 60 61 60 60 60
64 73 70 69 63 57 60 50 56 65 65 69 70 72 68 70 69 67 66 67 67 68 65 65 66 66 66 68 64 61 60 61 61 60 60 60 62 64 65 64 64 62 61 61 62 61 61 60 59
75 70 68 68 65 51 56 55 54 59 67 67 70 71 71 68 69 68 69 69 67 66 65 65 65 65 66 69 63 62 61 60 59 60 59 60 60 61 64 66 63 63 62 64 62 61 61 61 60
71 61 50 43 46 41 61 55 55 66 72 73 69 69 69 70 69 68 67 66 65 64 64 65 64 64 67 66 63 62 61 61 60 59 60 60 59 60 61 62 63 63 64 64 63 62 62 62 61
65 63 52 38 39 47 61 51 59 72 74 74 74 71 70 68 69 67 67 65 66 65 65 66 64 64 67 64 62 63 63 61 61 61 61 60 60 61 62 62 63 64 64 64 63 62 61 62 60
64 59 66 53 54 49 53 59 67 70 71 71 71 70 67 67 67 67 66 66 65 64 64 65 64 65 65 65 63 63 63 62 61 62 61 61 61 63 63 62 63 64 64 63 63 61 61 61 61
70 70 57 49 41 37 50 53 53 63 66 69 67 65 64 65 66 66 67 66 64 65 65 65 65 65 65 65 64 64 63 64 62 62 61 60 61 62 62 62 62 63 63 63 63 63 63 62 61
66 64 61 57 52 41 40 47 63 66 67 66 66 67 65 65 66 67 67 66 65 64 65 65 66 65 65 65 65 63 64 64 64 62 63 62 61 62 63 63 62 62 63 62 62 64 62 61 60
71 66 59 54 47 51 49 50 70 68 67 70 68 70 67 67 66 66 67 66 66 64 64 65 65 65 66 66 66 64 65 64 63 62 62 62 62 62 63 64 63 63 62 62 63 64 63 61 60

GFSSGP_sfc_temp_024.txt.gz
Temp
71 74 74 74 61 57 53 61 71 72 71 75 77 76 73 72 71 60 72 79 79 76 75 78 78 79 79 78 78 78 77 77 77 77 77 77 77 77 77 76 76 76 76 77 77 77 78 77 78
75 78 75 68 55 48 52 66 66 72 76 76 77 74 73 70 76 75 73 78 80 76 74 76 78 78 79 78 78 77 77 77 77 77 77 77 77 77 77 77 76 76 77 77 77 77 77 78 77
80 83 67 60 53 50 53 67 73 77 80 78 74 78 75 72 77 77 76 78 77 76 76 75 78 78 78 78 78 77 77 77 77 77 77 76 77 77 77 77 77 77 77 77 77 77 77 77 77
78 71 68 58 56 62 65 72 79 77 78 78 77 72 77 81 80 81 79 80 77 74 75 76 78 77 78 78 78 77 77 77 77 77 77 77 77 77 76 76 76 76 77 77 77 77 77 77 77
74 66 56 53 58 66 73 78 77 75 78 77 76 70 70 78 82 81 79 79 74 72 73 76 77 78 78 78 78 77 77 76 76 76 77 77 77 76 76 76 76 76 77 77 77 77 76 77 77
65 64 52 51 60 70 74 74 80 74 77 74 73 72 71 79 80 78 78 74 76 73 72 74 78 77 78 78 77 76 76 75 75 75 75 75 75 75 75 76 76 76 76 76 76 76 76 76 75
62 58 52 59 63 67 73 78 76 76 75 74 76 68 69 74 78 77 75 75 74 75 72 72 72 76 78 77 76 76 75 75 75 74 74 74 74 74 74 74 74 75 75 75 76 76 75 75 75
67 61 56 59 61 64 74 79 77 73 77 84 82 68 66 75 77 74 74 74 72 71 71 67 66 68 68 69 76 76 75 75 75 74 74 73 73 73 73 72 72 74 74 75 75 75 75 74 74
73 56 54 58 61 67 73 69 82 84 79 81 81 76 79 80 75 72 70 70 69 73 68 67 66 66 67 67 70 75 76 76 75 73 73 71 64 63 66 69 72 73 73 74 74 74 74 74 74
65 54 61 70 71 69 74 71 76 77 77 77 75 77 79 79 77 73 70 70 66 67 65 65 65 65 67 72 65 65 67 65 65 65 64 62 62 60 65 68 72 74 74 73 73 74 74 72 66
66 61 71 72 76 78 77 77 79 76 72 75 73 74 74 74 72 72 71 68 68 66 67 65 65 65 65 64 62 61 61 61 62 63 62 61 62 60 60 60 61 61 67 63 66 66 66 66 64
61 71 74 75 78 77 75 81 77 77 76 82 79 77 75 74 71 71 70 69 67 66 65 65 65 65 63 63 63 62 61 61 61 62 62 59 59 59 59 59 59 59 60 60 61 61 62 63 64
66 71 76 78 78 77 79 76 76 76 80 82 81 77 76 74 73 72 71 68 66 65 65 64 65 63 63 63 61 61 61 61 61 61 61 60 59 59 59 59 59 59 59 59 59 60 61 62 63
72 73 74 77 77 77 74 77 75 79 81 80 77 75 76 74 73 69 68 66 66 66 64 64 65 64 64 62 61 61 61 62 62 61 61 63 60 59 58 58 59 59 59 59 59 60 60 60 61
71 64 69 73 75 74 78 70 71 78 79 77 75 75 74 75 73 72 71 68 67 66 65 65 65 64 63 62 62 61 61 62 61 61 62 63 61 60 60 59 59 60 59 59 59 60 60 61 61
63 60 55 69 73 76 71 63 75 77 75 74 75 76 76 74 73 72 71 68 65 64 65 66 70 63 62 62 61 62 62 61 61 61 61 63 64 62 60 59 59 60 59 58 58 59 59 61 60
56 52 56 62 72 72 68 65 73 77 75 73 74 73 74 75 69 67 69 68 65 64 64 64 64 63 63 63 62 62 63 61 61 61 61 62 63 64 60 59 59 60 58 58 58 58 59 59 59
51 51 57 59 69 68 65 65 72 79 76 73 73 71 71 70 68 67 67 67 64 64 63 64 63 63 63 62 62 61 61 61 61 61 61 62 61 63 61 59 59 60 58 58 58 59 59 59 59
61 57 56 64 71 67 65 67 71 72 70 70 70 70 70 66 65 67 67 66 64 63 63 63 62 61 61 61 60 59 59 60 60 61 62 62 62 63 61 59 60 59 58 58 59 58 60 58 60
60 56 57 65 70 65 65 66 72 71 70 71 72 69 66 62 65 66 64 63 63 62 62 62 62 62 62 61 61 61 60 60 60 60 61 62 62 62 62 60 59 59 58 58 58 59 57 58 58
59 57 58 58 65 67 63 60 65 71 72 74 73 71 65 65 64 63 64 62 61 61 62 62 62 63 63 63 61 60 59 59 59 60 59 60 63 63 62 61 59 59 58 58 58 58 59 57 58
55 66 65 62 58 49 63 47 57 65 68 70 71 65 63 66 66 65 63 59 61 62 62 62 63 63 64 63 61 59 57 57 58 59 58 59 62 63 64 63 61 60 59 58 58 59 59 58 58
60 67 64 63 58 51 58 48 54 61 63 67 68 66 61 65 65 63 63 64 63 63 61 62 63 63 63 62 61 59 58 58 58 58 59 59 60 62 64 63 62 60 59 58 59 59 59 58 59
70 63 61 60 55 44 56 51 57 57 64 65 65 65 63 62 62 63 65 64 62 62 61 61 62 63 63 64 61 59 58 58 58 58 58 59 59 60 61 62 61 61 59 59 59 59 60 59 59
64 54 42 38 41 42 56 52 59 63 66 69 65 62 63 64 63 63 62 61 60 60 60 61 62 62 63 62 61 60 59 59 58 58 59 59 58 59 60 61 61 60 62 61 60 60 59 60 59
60 57 45 35 36 43 57 49 58 67 70 70 68 66 65 64 64 63 64 62 63 61 61 62 61 62 61 61 61 61 60 59 59 59 59 58 59 59 60 61 62 62 63 62 60 60 59 59 59
58 52 60 48 48 44 49 56 63 64 64 66 64 65 63 62 61 63 61 62 60 60 61 61 61 61 61 61 61 61 60 60 59 58 59 58 59 62 61 61 61 62 62 61 61 59 59 59 58
63 64 50 44 39 36 45 50 51 58 61 63 62 61 63 61 62 63 63 62 60 61 61 60 62 61 62 61 61 61 61 61 60 60 59 59 60 61 60 61 61 61 61 61 60 60 60 62 60
56 58 55 54 48 40 39 48 57 62 63 62 64 64 62 62 63 63 63 63 61 60 60 60 61 61 61 61 61 61 61 62 61 61 61 60 60 61 61 61 61 61 61 61 61 60 61 61 59
66 57 60 51 45 48 46 49 63 61 65 67 65 66 64 65 64 64 63 61 60 60 60 61 61 62 62 62 61 61 61 61 60 61 60 60 60 61 61 61 61 61 60 61 62 61 61 60 59

GFSSGP_sfc_temp_027.txt.gz
Temp
71 72 70 71 59 54 50 58 65 68 67 72 74 72 71 70 69 60 72 76 77 77 75 77 78 78 78 78 78 78 77 77 77 77 77 77 77 77 76 76 76 76 76 77 77 77 77 77 77
72 75 74 66 53 46 51 61 64 69 73 72 74 71 70 68 73 72 73 76 76 75 73 75 78 78 78 78 78 77 77 77 77 77 77 77 77 77 77 77 76 76 76 77 77 77 77 77 77
76 80 68 60 50 48 52 63 69 75 76 73 70 74 72 71 75 73 76 76 75 74 74 74 78 78 78 78 78 77 77 77 77 77 77 77 77 76 77 77 77 77 77 77 77 77 77 77 77
75 71 67 55 52 57 60 68 73 72 77 75 75 70 74 78 76 78 77 77 75 74 74 75 78 77 78 78 78 77 77 77 77 77 77 77 76 77 76 76 77 77 77 77 77 77 77 77 77
72 64 54 51 55 60 68 71 71 71 73 72 73 69 70 78 78 76 76 77 74 70 69 74 77 77 78 78 78 77 77 77 77 77 77 77 76 76 76 76 76 76 77 77 77 77 76 76 77
63 62 51 50 57 65 69 72 69 72 73 71 70 70 70 75 75 73 74 72 75 71 69 72 77 77 77 78 77 77 76 76 76 76 76 76 76 76 76 76 76 76 76 76 77 77 76 75 75
60 55 51 54 61 63 68 72 70 71 69 73 74 68 69 71 75 73 73 71 71 71 71 69 72 76 78 77 77 76 75 75 75 75 75 75 75 75 75 75 75 75 75 75 75 75 76 75 74
66 60 53 56 57 61 70 71 70 71 76 77 77 68 66 72 74 71 69 68 67 67 67 65 66 68 68 69 77 76 75 75 75 75 74 74 74 74 74 73 73 74 75 75 75 75 75 74 74
68 53 50 55 58 63 67 66 74 80 75 77 78 75 76 76 71 68 66 65 63 68 64 63 65 64 65 66 69 75 77 76 75 74 74 71 64 64 66 69 71 72 73 73 74 74 74 74 74
63 51 56 68 65 64 68 67 71 74 75 74 75 75 74 76 72 70 67 66 64 64 64 63 63 63 64 70 65 64 66 65 64 65 64 63 62 61 64 66 71 72 73 74 73 73 74 73 66
61 60 68 69 70 68 69 72 78 73 69 74 73 73 71 70 71 71 71 71 70 65 64 62 63 63 64 64 61 60 60 60 61 63 62 60 61 59 60 59 60 60 66 61 64 64 64 65 63
58 66 71 72 75 70 69 74 73 76 77 83 78 75 71 71 71 71 71 69 65 64 65 64 63 63 62 62 60 59 59 60 60 61 61 59 58 58 58 58 59 59 59 59 60 60 62 62 63
61 66 71 73 72 74 76 71 73 75 81 81 78 73 72 72 72 72 73 68 64 63 64 62 62 61 61 60 59 59 59 60 60 60 60 59 58 58 58 58 58 58 58 58 58 59 60 61 62
65 66 67 70 70 73 71 72 73 77 80 76 73 71 73 72 72 69 65 64 64 65 63 62 62 61 61 60 59 59 59 60 60 59 60 61 59 58 58 58 58 58 58 58 58 59 59 59 60
65 61 65 67 71 69 75 67 69 78 77 73 71 73 73 72 73 70 71 66 67 65 63 62 61 61 60 60 60 59 60 61 60 60 61 61 60 59 59 58 57 58 59 58 58 58 59 58 59
59 56 51 66 70 72 69 59 72 77 72 72 71 72 72 71 71 73 68 65 63 63 63 62 67 61 60 60 60 60 60 60 60 60 60 62 62 61 58 58 58 59 58 58 57 57 57 58 58
50 50 52 58 68 66 65 61 70 73 71 70 71 70 73 72 70 66 67 63 63 64 61 61 61 61 60 60 60 60 61 60 60 60 60 62 63 62 59 58 58 59 58 57 57 56 57 57 58
49 46 52 55 64 64 62 61 69 71 71 69 70 71 70 68 70 65 63 64 62 61 61 61 61 60 60 60 60 59 59 60 60 60 60 61 61 62 60 59 58 58 57 56 56 57 57 58 59
58 53 51 59 65 62 59 60 64 70 68 68 66 66 68 65 64 63 64 64 62 60 60 60 60 59 60 59 59 58 58 59 59 59 61 61 61 61 59 59 58 58 56 56 57 57 59 59 59
56 52 52 60 64 61 59 59 66 68 68 69 70 67 64 60 60 62 61 64 62 60 60 60 61 59 60 59 59 59 58 59 59 59 60 60 61 61 60 59 58 58 56 56 56 58 56 56 59
55 52 54 54 60 62 58 56 61 69 67 69 69 69 68 64 59 60 61 61 60 59 59 60 60 60 61 61 59 58 58 58 58 58 58 59 61 62 61 60 59 57 57 55 56 57 57 56 57
51 61 60 58 52 46 57 41 53 60 64 66 68 67 65 60 60 61 61 58 60 59 60 60 60 61 62 61 59 57 56 55 56 57 57 59 61 62 62 61 59 58 57 56 57 58 58 57 56
57 63 58 58 52 48 52 45 50 57 60 64 66 67 60 59 60 60 61 62 60 60 59 60 60 61 61 60 59 57 56 56 57 57 57 58 59 60 62 62 61 59 57 57 58 57 57 57 57
66 57 55 55 49 42 52 47 48 55 60 63 66 64 59 58 59 59 60 61 59 59 59 59 60 60 60 60 59 58 57 56 56 57 57 57 58 58 60 62 60 59 57 57 58 58 58 59 59
60 49 38 34 36 37 53 47 54 60 63 66 66 61 58 59 58 60 61 58 58 58 58 59 59 59 60 60 59 59 58 57 57 57 57 58 58 58 58 60 59 57 58 58 58 58 59 59 60
55 53 38 31 33 41 52 44 52 64 68 68 66 60 60 58 59 61 61 59 60 59 58 59 59 59 59 60 59 59 58 57 57 57 57 57 58 59 59 60 60 60 60 59 59 58 58 59 59
55 49 57 45 44 40 45 52 60 61 62 61 59 59 57 58 58 60 59 59 59 58 58 59 59 59 59 60 59 59 59 58 57 57 57 58 58 60 60 60 61 61 60 59 59 58 58 58 59
56 60 46 43 34 34 43 46 50 56 59 59 57 57 57 56 57 59 60 58 60 59 58 58 59 59 59 60 59 60 60 59 58 58 58 58 59 59 59 59 60 60 60 59 59 58 58 59 57
52 52 48 51 44 36 35 43 55 60 59 59 58 59 57 57 59 60 61 59 60 58 57 58 58 59 59 59 59 60 60 60 59 59 59 59 59 60 60 60 60 59 59 59 59 61 61 60 59
62 56 52 48 40 45 42 47 60 62 63 64 64 60 58 59 60 61 60 58 57 57 57 57 58 59 59 60 60 60 60 59 59 59 59 60 59 60 60 60 60 60 60 59 60 61 61 60 59

GFSSGP_sfc_temp_030.txt.gz
Temp
71 70 70 70 58 53 49 55 62 65 66 69 72 71 68 69 65 58 70 73 75 76 73 77 78 78 78 78 78 78 77 77 77 77 77 77 77 76 76 76 76 76 76 76 77 77 77 77 77
70 72 71 65 52 45 50 58 62 67 71 69 71 71 69 69 72 72 72 74 75 74 72 75 78 78 78 78 78 77 77 77 77 77 77 77 77 77 77 77 76 76 76 76 77 77 77 77 77
74 78 67 57 50 47 51 61 65 71 73 72 68 73 73 71 73 73 74 74 73 73 73 74 78 78 78 78 78 77 77 77 77 77 77 77 77 77 76 77 77 77 77 77 77 77 77 77 77
75 69 66 55 50 57 59 65 65 68 73 72 73 70 73 78 76 76 76 75 73 72 73 75 78 77 78 78 78 77 77 77 77 77 77 77 76 76 76 76 77 77 77 78 78 78 76 77 77
69 64 53 50 53 59 64 68 66 67 69 71 70 69 69 75 76 75 73 75 72 68 69 73 77 77 78 78 78 77 77 77 76 77 77 77 76 76 76 76 76 76 77 77 77 77 77 76 76
62 60 49 49 56 62 66 69 67 67 69 68 67 67 70 72 73 72 73 71 72 69 67 70 77 77 77 77 78 77 76 76 76 76 76 77 76 76 76 75 76 76 76 77 77 77 76 76 75
60 54 49 53 58 60 65 68 67 66 66 71 70 67 70 71 74 71 71 69 69 69 67 68 72 76 77 77 77 76 76 76 75 75 75 76 76 76 75 75 75 75 76 76 76 76 75 75 75
63 57 52 57 58 60 68 67 67 68 71 74 74 68 68 71 71 69 67 66 66 66 67 66 68 71 70 71 77 76 76 75 75 75 75 75 75 75 75 74 73 74 74 75 75 75 75 74 74
65 52 49 56 58 61 64 63 69 75 73 73 76 74 74 71 68 67 64 64 62 65 63 63 65 66 66 67 70 76 77 76 76 75 75 73 67 66 69 70 72 72 73 73 74 74 74 74 74
61 50 55 64 63 63 64 63 67 70 70 73 74 76 73 70 68 67 65 66 62 63 62 62 63 63 64 69 65 65 66 66 66 67 66 66 64 63 66 68 71 72 73 73 74 74 73 73 69
59 57 66 65 68 66 65 68 70 67 66 72 71 76 70 68 66 67 69 70 70 68 64 62 62 62 62 64 62 61 62 62 63 64 64 63 63 62 64 63 63 63 66 64 65 65 66 67 67
55 63 69 69 71 64 66 69 69 71 72 78 79 75 70 68 67 68 68 69 65 63 64 61 62 61 61 62 61 61 60 60 60 61 62 61 60 59 59 60 60 60 62 61 61 61 63 64 66
59 64 67 68 67 66 72 68 69 70 78 80 78 74 70 69 70 71 72 70 62 62 61 61 60 61 61 61 60 59 59 60 61 61 61 60 59 59 59 59 60 60 60 60 60 61 62 63 64
61 63 64 64 66 69 67 67 66 71 78 76 75 72 70 69 70 70 65 66 62 62 61 60 61 61 61 60 60 59 59 60 60 60 61 61 60 59 59 59 59 59 60 60 61 61 61 62 62
62 55 61 64 66 64 71 64 63 74 75 72 73 72 70 70 69 69 71 70 63 61 61 61 60 61 60 60 60 59 59 60 60 60 61 62 61 60 60 59 59 60 60 60 60 60 61 60 61
55 53 49 62 67 66 67 55 66 75 70 70 70 71 69 68 69 72 70 64 60 60 62 61 66 61 60 59 60 60 60 60 60 60 61 62 62 61 60 59 59 60 60 60 59 59 59 60 60
48 48 49 55 66 62 61 57 67 69 68 68 71 70 69 70 67 69 65 61 61 62 61 60 61 60 60 60 59 60 61 60 61 61 61 62 63 63 60 59 60 60 60 59 59 58 60 59 59
46 45 52 54 61 58 57 57 64 69 67 67 67 69 68 67 69 66 62 61 62 62 61 60 60 60 60 59 60 60 60 60 61 61 61 63 62 63 61 60 60 60 59 58 58 59 59 60 60
59 53 50 61 62 57 55 55 62 65 63 63 64 64 64 63 64 63 60 62 62 62 60 59 59 59 59 59 59 59 59 59 60 60 62 62 62 62 60 60 60 59 58 58 58 59 59 59 60
55 53 52 59 60 56 55 55 62 64 64 66 68 67 65 61 60 58 58 61 62 61 60 58 59 58 60 59 59 60 59 59 60 60 61 61 62 62 61 60 59 59 58 58 58 60 58 59 60
53 52 54 54 56 57 55 52 58 64 64 66 66 66 65 64 59 56 58 58 60 60 59 59 59 60 60 60 59 58 58 58 58 59 60 61 62 62 62 61 60 59 58 57 58 59 60 58 60
49 59 58 55 49 41 53 38 53 59 60 63 66 64 64 60 57 57 56 56 59 60 59 59 60 60 61 60 59 58 57 56 57 58 59 60 62 63 63 62 61 59 58 57 58 60 60 60 58
54 62 58 54 47 42 47 41 49 54 57 61 65 66 63 57 55 56 58 59 59 59 58 59 60 60 60 60 60 58 57 57 58 58 59 60 60 62 63 62 61 59 58 58 59 59 60 60 59
64 57 52 48 44 35 47 45 44 51 57 62 64 64 59 55 55 57 59 59 58 58 58 59 59 59 60 60 60 58 58 58 57 58 58 58 59 60 62 63 62 60 59 58 59 60 60 60 61
57 47 34 32 32 33 49 44 51 56 60 64 65 63 56 56 55 57 59 58 57 57 58 58 59 59 59 60 59 59 59 58 58 58 58 60 60 60 60 61 60 59 59 59 60 60 60 61 62
53 49 38 31 31 39 49 41 48 61 68 66 64 62 56 54 55 59 59 58 59 58 58 59 58 59 59 59 59 59 60 58 58 58 59 59 59 60 61 61 61 61 60 60 60 60 60 60 60
50 46 51 42 43 37 42 48 57 61 61 62 61 57 54 53 54 57 57 58 58 58 58 58 58 59 59 60 59 59 60 60 59 59 59 59 60 61 61 62 62 61 61 60 60 60 60 61 60
57 58 43 41 33 31 39 43 48 56 62 60 56 55 53 53 55 57 58 57 58 59 58 58 59 59 60 60 60 61 61 61 60 60 60 60 60 61 61 61 61 61 61 61 60 60 60 60 59
48 48 44 47 39 33 33 41 53 59 60 60 58 57 53 54 56 58 58 58 58 57 57 58 58 59 59 60 60 61 61 61 60 60 60 60 60 61 61 61 61 60 60 60 60 61 61 60 59
60 50 47 45 36 41 40 42 58 59 61 60 60 58 55 55 57 58 58 56 56 56 56 57 58 59 60 60 61 61 61 60 59 60 61 61 61 61 61 61 61 61 60 60 61 62 62 61 60

GFSSGP_sfc_temp_036.txt.gz
Temp
79 89 93 90 80 80 75 79 87 84 86 92 93 90 89 93 87 81 96 100 99 98 93 85 79 79 79 79 78 78 78 78 78 78 78 77 77 77 77 77 77 77 77 77 77 77 77 77 78
89 87 90 91 76 74 78 84 82 87 90 93 93 93 90 88 97 98 98 98 100 97 92 90 79 79 79 79 78 78 78 78 78 78 78 78 77 77 77 77 77 77 77 78 78 78 77 77 78
92 93 88 84 79 75 80 85 87 89 92 91 90 93 92 90 96 99 101 98 99 96 95 91 79 78 79 79 78 78 78 78 78 78 78 78 78 78 77 77 77 77 78 78 78 78 78 77 77
91 91 89 77 76 82 83 88 88 88 92 93 92 88 95 99 97 101 100 99 99 99 97 89 78 78 79 79 78 78 78 78 78 78 78 78 78 77 77 77 77 78 78 78 78 78 79 78 77
93 91 79 76 79 84 87 90 90 88 89 91 92 87 90 98 99 98 98 99 99 99 98 96 78 78 78 79 78 78 77 77 77 77 78 78 77 77 76 76 77 77 77 78 78 78 78 78 77
85 88 75 75 80 84 88 92 91 90 91 91 89 89 92 98 97 99 100 99 101 99 96 96 80 78 78 78 78 77 77 77 77 77 77 77 77 77 77 77 77 77 77 77 76 77 77 76 76
81 81 76 79 79 80 86 93 89 90 89 89 93 86 94 98 100 99 100 100 99 99 95 93 90 83 77 77 77 77 77 76 76 76 76 76 77 77 77 77 77 76 76 76 76 75 75 76 75
86 84 77 79 77 79 88 90 92 90 88 94 94 86 88 97 97 99 100 101 99 98 97 93 91 91 87 86 78 77 77 76 76 76 76 76 76 77 76 75 75 75 75 75 75 75 75 75 74
90 77 73 77 79 82 89 87 90 92 90 93 95 93 97 98 97 98 97 99 99 98 96 95 95 93 90 91 88 78 77 77 77 77 76 77 83 85 83 80 77 75 74 74 74 74 74 74 75
81 76 77 86 87 85 88 86 88 85 87 89 93 97 97 98 97 95 96 95 95 96 95 95 92 91 91 92 89 86 87 87 86 85 84 84 84 84 83 80 75 74 74 74 74 74 74 75 83
82 76 85 87 89 89 86 86 92 86 83 90 90 92 96 96 96 95 96 98 98 98 97 94 88 88 89 91 90 89 89 87 86 83 83 83 83 83 83 83 82 81 77 81 81 80 81 82 79
77 84 85 88 91 88 84 88 85 86 87 93 95 94 95 94 94 96 97 98 98 97 96 93 89 85 85 90 89 88 88 86 85 85 81 80 81 80 79 80 79 79 82 80 80 81 80 80 79
79 83 86 87 89 88 87 84 84 86 91 94 95 94 93 94 95 97 98 98 95 95 96 92 88 84 83 83 87 86 85 86 86 84 83 81 82 80 80 79 80 79 80 80 80 80 79 79 79
84 84 84 86 86 86 82 83 86 87 91 91 92 92 94 94 95 96 96 95 92 92 94 90 86 83 83 82 83 83 83 86 84 84 83 80 80 79 80 77 76 79 81 81 77 80 79 78 78
83 76 81 81 84 82 85 77 79 88 90 90 90 90 92 93 96 94 96 93 94 93 91 86 84 83 81 81 82 82 85 83 84 84 81 79 78 78 76 74 74 76 77 75 75 75 78 77 78
75 76 69 80 81 82 81 70 84 90 90 87 88 89 90 92 93 95 95 94 94 91 87 84 86 83 80 81 82 84 85 83 84 83 82 79 78 77 75 72 71 71 72 75 72 73 73 72 73
72 65 68 73 83 81 77 72 84 90 88 84 86 88 89 90 92 93 95 94 92 89 85 82 83 83 80 80 83 82 81 81 83 83 82 80 79 78 75 74 72 70 72 72 72 73 71 69 69
64 65 69 70 79 77 76 75 83 86 85 84 86 87 87 89 90 93 94 92 89 84 82 81 82 80 79 81 81 83 83 82 83 82 82 79 78 77 75 71 70 70 70 69 70 71 71 71 68
72 71 69 74 80 76 75 76 81 85 84 84 85 86 87 88 92 94 86 84 82 81 80 79 78 77 79 81 81 81 81 82 82 82 80 79 77 77 74 72 69 69 69 69 70 70 67 66 69
69 67 68 75 79 77 74 73 80 83 83 84 85 86 86 89 91 92 82 80 79 78 78 77 77 76 79 82 81 83 82 84 83 83 79 78 78 77 75 71 70 72 70 72 70 69 66 67 68
67 65 66 67 75 77 72 68 72 81 84 86 86 88 90 89 88 88 79 79 79 77 77 77 77 77 79 80 80 78 80 79 79 79 79 78 77 77 75 75 75 74 71 68 70 71 68 66 68
62 72 69 67 65 59 73 59 70 77 78 82 84 86 89 90 86 83 80 77 77 78 79 79 78 77 78 78 79 77 79 78 82 79 82 79 77 77 77 75 74 71 72 69 74 75 70 69 70
67 72 70 68 64 64 65 61 67 75 72 78 83 86 89 87 85 81 80 78 80 79 79 79 78 78 77 77 79 78 76 80 80 80 75 75 74 76 77 75 73 73 73 74 75 74 70 70 68
74 68 69 68 65 54 62 61 63 70 74 80 85 87 89 84 81 81 80 79 79 81 80 79 77 77 77 77 77 75 74 75 77 77 74 71 72 72 76 76 74 74 74 75 75 73 72 71 72
70 63 54 50 52 50 66 62 62 75 80 82 83 86 86 83 81 78 78 79 78 79 79 79 77 76 77 77 77 76 75 74 73 74 73 72 73 71 75 74 73 72 74 75 75 72 72 72 73
65 64 57 46 50 56 66 57 66 78 82 84 86 88 86 83 81 79 80 79 80 79 79 79 78 77 78 78 77 76 76 80 78 76 77 72 75 71 74 75 75 74 75 75 75 74 72 73 71
65 61 72 63 65 59 65 67 71 77 79 83 84 85 83 81 79 79 80 80 80 79 78 78 78 78 78 78 77 76 76 76 76 74 74 73 74 74 75 76 75 75 76 76 74 74 73 74 70
70 72 59 63 49 48 60 61 61 73 77 81 82 83 84 80 80 80 80 79 81 80 79 79 79 78 78 78 78 78 77 77 77 76 74 75 74 75 76 76 76 75 75 76 74 73 73 70 74
66 64 66 66 64 53 52 58 72 76 80 80 84 85 81 79 80 80 81 81 82 81 81 79 79 79 78 78 78 77 79 77 76 75 75 75 74 75 77 77 76 76 75 75 73 73 74 74 72
71 67 65 59 54 63 62 61 74 79 79 83 86 86 82 82 82 82 82 81 81 81 81 79 79 80 79 79 79 77 78 77 74 74 75 76 74 76 77 78 77 76 76 74 74 74 74 73 72

GFSSGP_sfc_temp_042.txt.gz
Temp
79 83 88 88 71 73 69 77 91 86 89 97 98 94 90 94 88 78 100 103 99 88 82 81 79 79 79 79 78 78 78 78 78 78 78 78 78 78 78 77 77 78 78 78 78 78 78 78 78
85 87 85 82 68 65 71 84 79 84 93 97 97 96 93 89 99 98 99 103 101 88 82 82 78 78 79 78 78 78 78 78 78 78 78 78 77 77 77 77 77 77 78 78 78 78 78 78 78
86 91 80 77 72 68 75 86 83 85 93 95 94 99 95 92 99 100 102 103 99 90 85 83 78 78 79 78 78 78 77 77 78 78 78 78 78 77 77 77 77 77 78 78 78 78 78 78 78
86 86 83 70 70 79 81 87 91 89 96 98 96 91 99 102 100 103 104 104 101 97 91 83 78 78 78 78 78 78 78 77 78 78 78 78 78 77 77 77 77 78 78 78 78 78 78 78 78
88 86 74 72 75 82 90 95 91 90 93 95 97 90 91 100 103 104 102 104 101 100 95 83 78 78 78 78 78 78 77 77 77 77 78 78 78 77 77 77 77 77 77 77 78 77 77 77 77
79 83 70 69 77 86 92 97 95 93 94 96 94 92 93 101 101 102 104 101 104 100 94 84 79 78 78 78 78 77 77 77 77 77 77 77 77 77 77 77 77 77 77 77 77 77 76 76 76
77 77 72 75 78 83 90 96 93 93 93 93 98 88 95 98 101 102 103 103 102 102 96 84 81 79 78 78 77 77 77 77 77 76 77 77 77 77 77 77 77 77 77 77 77 76 76 75 75
83 80 73 77 76 79 91 94 97 94 92 99 99 87 88 97 102 103 105 105 103 102 100 86 83 83 80 79 77 77 77 76 76 76 76 76 76 77 77 76 76 77 77 76 76 76 75 75 75
88 72 69 73 76 81 93 90 97 100 93 96 98 96 99 103 105 102 101 103 104 102 98 95 88 85 82 82 80 77 77 77 76 77 76 75 76 77 79 77 77 77 76 76 75 75 74 74 74
79 71 72 81 84 84 90 92 93 91 90 90 92 99 102 103 101 98 98 97 99 100 99 98 92 87 85 88 82 78 79 78 77 78 77 75 77 77 81 79 78 77 76 75 75 75 74 74 73
80 73 80 83 87 90 89 90 95 90 85 89 89 94 98 99 97 97 98 99 99 100 100 98 86 85 86 87 85 80 80 79 78 78 77 77 79 78 79 76 75 73 74 74 75 73 72 73 73
75 81 83 85 88 88 86 91 89 91 90 95 96 98 98 96 95 96 97 98 99 98 95 96 88 83 83 87 87 82 82 81 80 80 78 76 77 75 75 76 75 72 73 73 72 72 73 72 73
79 81 85 87 89 88 90 87 88 89 95 98 99 97 96 95 95 96 97 98 96 94 95 93 87 83 82 81 84 83 82 83 81 80 79 77 76 74 77 75 75 74 74 73 72 72 71 71 73
83 83 84 87 88 89 85 87 88 89 95 94 95 94 96 96 96 95 94 92 91 91 91 91 85 82 83 81 80 80 80 81 80 79 79 77 76 75 75 75 74 73 71 72 71 71 70 70 70
83 77 82 85 86 85 88 81 82 91 94 91 92 94 95 96 97 95 94 90 92 91 90 88 85 83 80 80 80 81 81 81 79 79 79 78 76 75 75 74 74 72 71 71 69 69 69 68 70
76 77 70 80 84 86 84 71 84 91 90 88 91 93 94 94 96 96 94 90 90 89 88 90 93 83 80 79 80 81 81 79 79 78 78 78 77 76 75 73 72 72 70 69 68 67 67 66 67
72 65 67 72 83 82 81 74 85 90 89 87 88 90 92 93 94 91 92 92 91 90 88 88 87 83 80 80 80 80 80 78 77 78 78 79 77 77 74 73 72 72 69 68 67 67 66 65 65
61 63 68 68 78 81 78 77 84 88 89 87 88 89 89 90 91 92 91 93 93 91 89 87 84 81 79 80 79 79 78 78 79 78 78 79 78 78 74 73 71 70 68 67 67 65 66 65 65
70 69 67 74 80 77 75 76 81 86 87 86 87 86 87 88 93 92 92 92 88 87 84 81 80 79 78 78 77 77 76 76 77 78 80 80 78 77 73 72 71 69 67 67 67 65 65 64 65
69 67 67 74 80 78 76 75 81 84 85 87 86 86 87 88 90 92 91 85 83 81 81 79 79 78 77 77 76 77 77 78 78 78 78 78 78 75 74 72 69 70 68 67 66 66 64 64 64
67 65 66 67 75 78 74 71 75 83 86 87 88 89 89 87 86 88 90 82 81 79 78 78 78 76 77 78 76 78 78 77 76 76 75 75 76 75 72 72 69 69 68 66 66 66 64 61 64
62 73 72 70 67 61 74 58 70 76 78 83 85 87 87 88 89 90 86 80 79 79 79 78 77 76 77 78 77 76 74 72 75 76 73 74 76 74 74 72 72 69 67 67 68 68 65 64 62
65 74 72 71 67 66 66 61 67 76 74 79 83 87 87 89 90 90 83 81 82 80 78 77 76 75 77 77 77 75 74 76 77 76 71 73 72 74 75 72 72 69 68 67 67 67 66 65 64
75 70 70 70 68 56 64 62 63 69 74 78 84 87 88 90 91 88 84 82 80 80 78 76 75 75 76 77 77 76 75 75 73 74 71 72 69 71 70 72 71 70 68 68 68 67 67 64 65
69 64 53 51 53 52 67 63 65 75 80 82 83 85 88 90 90 84 81 80 78 78 77 76 75 74 75 76 76 76 76 75 75 74 72 71 68 68 69 70 69 70 69 69 69 68 67 66 65
64 63 56 44 48 55 66 58 66 79 84 86 87 87 89 89 85 83 81 79 79 78 76 76 76 74 76 76 76 76 76 74 74 74 71 70 70 70 72 72 71 71 71 71 68 67 66 67 65
63 59 69 60 63 58 65 70 75 80 82 84 85 85 86 83 81 81 81 79 79 77 76 76 76 76 76 76 75 75 75 76 74 73 71 73 72 72 71 72 71 71 71 70 68 67 67 67 66
66 72 58 62 47 47 60 63 67 74 77 81 81 83 85 83 83 82 81 79 79 78 78 78 78 76 77 76 76 76 74 73 75 74 72 73 72 73 71 72 71 70 71 70 69 68 69 67 66
63 62 65 65 63 53 51 60 77 76 80 80 82 84 85 82 83 82 82 81 81 80 80 78 78 77 76 76 76 74 74 74 73 73 74 72 72 73 71 71 71 70 70 70 68 68 69 66 63
69 64 64 58 54 62 61 63 81 81 83 83 84 86 86 84 84 84 83 81 80 79 79 78 77 78 78 78 76 73 71 74 72 72 72 72 71 72 72 72 72 72 72 71 70 69 70 66 63

GFSSGP_sfc_temp_045.txt.gz
Temp
71 73 75 75 61 60 56 66 78 78 77 84 87 85 79 82 79 66 83 86 82 76 75 78 79 79 79 79 78 78 77 77 77 78 78 78 77 78 77 77 77 77 78 78 78 78 77 77 77
77 83 76 70 57 53 58 73 72 75 83 90 91 86 84 80 89 87 84 84 82 77 75 76 79 79 79 78 78 77 77 77 77 77 77 77 77 77 77 77 77 77 78 78 78 78 78 78 77
79 83 68 63 60 57 62 74 77 80 86 89 87 91 88 83 89 88 88 84 81 77 76 76 78 78 78 78 78 77 77 77 77 78 78 77 77 77 77 77 77 77 78 78 78 78 78 78 78
77 73 70 60 59 69 72 79 82 82 87 91 88 83 89 91 91 91 88 85 81 78 78 78 78 78 78 78 78 77 77 77 77 78 77 77 77 77 77 77 77 77 78 78 78 78 78 78 78
75 70 59 59 64 73 80 84 86 80 84 88 89 81 83 89 92 93 89 88 82 79 79 78 78 78 78 78 78 77 77 77 77 77 77 77 77 77 77 77 77 77 77 78 77 77 77 77 77
65 70 56 57 66 76 81 86 86 84 85 89 87 84 81 90 91 90 92 89 87 82 80 77 78 78 78 78 78 77 77 77 76 77 77 77 77 77 77 77 77 77 77 77 77 77 77 76 75
62 59 57 63 67 73 81 88 86 85 83 84 87 80 80 86 89 90 90 90 88 86 81 77 77 77 78 77 77 77 76 76 76 76 76 76 77 76 76 76 77 77 77 77 77 76 76 75 75
71 62 58 63 65 69 82 85 85 82 86 93 92 79 75 83 91 91 89 87 88 86 80 76 75 76 75 75 77 77 76 76 76 76 76 76 76 76 76 75 76 77 77 77 76 76 75 75 74
79 57 55 62 67 73 83 79 90 94 88 88 88 86 89 91 91 86 84 85 81 85 79 78 75 75 75 75 76 77 77 77 76 76 76 75 71 71 73 75 75 77 76 76 76 75 75 74 74
69 59 62 72 76 75 80 82 85 86 84 84 86 92 94 94 88 86 82 81 80 82 80 79 77 75 75 79 75 74 74 74 73 72 71 70 68 67 74 75 77 77 77 76 75 75 75 74 68
71 63 71 75 79 82 80 82 88 84 80 82 82 87 88 89 85 85 86 84 83 84 81 81 79 77 76 79 76 73 73 72 71 70 69 69 71 69 70 68 71 70 75 70 73 71 70 68 67
67 73 75 77 80 80 78 84 82 83 82 89 90 91 88 86 84 85 84 83 83 84 83 80 80 78 78 80 77 73 73 72 71 71 70 69 69 68 68 66 66 66 66 66 66 65 68 67 69
69 73 77 79 79 80 83 80 80 81 88 90 91 89 86 84 84 84 85 84 82 81 81 81 76 79 79 78 77 75 74 73 73 73 73 72 69 68 67 67 66 66 66 66 66 68 67 66 67
73 75 75 78 77 80 78 79 81 84 87 88 89 88 85 84 85 83 83 82 80 81 82 82 75 77 79 79 76 76 77 76 74 74 73 71 69 68 68 67 67 66 65 66 65 65 64 66 68
73 67 72 75 77 76 81 74 76 84 87 85 86 87 85 85 86 84 83 79 81 81 80 79 75 72 78 77 73 74 76 75 75 73 72 71 69 68 68 66 65 65 65 66 65 65 64 63 65
66 66 58 70 75 78 78 65 77 84 83 81 82 86 86 82 83 83 83 81 80 78 79 76 81 73 71 71 70 72 71 71 70 70 70 71 70 70 68 66 65 65 65 64 63 63 62 62 62
59 53 57 64 75 75 73 67 77 82 82 80 82 83 85 82 81 80 84 82 80 78 77 74 73 74 71 71 71 71 71 70 69 69 67 70 71 71 68 66 65 66 64 63 63 62 62 61 60
51 54 59 59 68 72 69 69 76 80 81 80 82 82 82 79 79 82 81 83 79 76 76 73 73 70 70 71 70 70 69 69 70 66 69 70 70 71 68 66 65 65 63 62 62 61 61 61 60
61 59 58 64 71 68 67 68 72 77 75 77 79 76 74 76 80 80 81 77 75 73 73 71 70 70 73 71 68 67 66 67 68 69 72 71 70 70 66 64 64 64 63 62 62 61 60 59 61
58 56 57 65 71 68 67 66 73 76 77 79 79 74 75 75 77 81 78 75 73 70 69 69 69 69 68 69 68 68 67 67 69 69 70 70 70 68 67 65 65 64 62 62 62 61 59 59 60
57 55 57 57 65 68 64 60 66 73 76 78 78 77 74 75 74 78 74 70 69 68 68 69 68 68 69 69 68 67 67 67 67 67 66 68 70 69 67 67 64 63 62 61 61 61 60 58 59
52 64 63 62 58 50 62 48 61 68 71 74 76 73 74 75 77 76 71 68 68 68 69 68 68 68 69 69 67 66 64 63 65 67 65 66 69 68 69 67 65 63 63 62 62 62 60 59 57
56 65 62 61 57 55 57 48 60 65 64 66 71 77 77 79 75 75 72 71 69 69 67 67 67 68 68 68 68 66 65 64 65 64 65 65 65 67 70 67 65 63 62 62 62 61 61 60 58
66 61 60 59 55 44 54 53 56 61 65 66 71 74 77 75 75 72 73 72 70 69 67 66 66 66 68 68 67 67 65 64 63 63 62 62 63 64 67 67 64 63 62 62 62 62 61 61 61
58 52 40 38 41 41 57 52 58 62 69 73 72 74 75 75 70 71 70 69 69 67 67 66 66 65 67 67 67 67 66 65 64 64 62 63 62 62 63 64 63 63 63 63 63 62 62 62 60
52 51 42 32 37 43 57 50 57 69 75 77 79 77 75 73 72 71 70 70 69 68 68 67 65 65 66 67 66 66 66 64 63 64 63 63 63 63 64 64 64 64 64 63 62 62 62 62 61
52 46 57 47 50 44 49 59 66 71 72 75 75 73 67 69 71 70 70 70 69 68 67 66 66 66 66 66 65 65 66 66 64 64 64 63 64 65 65 65 64 64 64 63 62 62 62 62 62
53 59 45 48 36 35 47 52 54 64 68 72 69 68 67 70 70 70 70 69 70 70 67 67 67 66 66 66 66 67 66 66 65 64 64 65 65 66 64 64 64 64 64 64 63 62 62 61 61
50 49 50 48 49 40 39 47 64 66 68 67 68 71 70 70 71 71 70 71 71 70 70 67 67 67 65 67 66 66 65 66 65 64 65 65 65 66 65 65 64 64 65 63 62 62 63 62 62
53 51 52 43 42 50 46 49 67 69 66 71 69 71 72 73 72 72 71 71 71 69 69 67 66 66 67 67 66 65 67 65 64 64 65 65 64 65 66 66 68 68 68 65 63 63 63 63 62

GFSSGP_sfc_temp_048.txt.gz
Temp
72 72 73 73 61 57 53 62 74 73 75 80 83 80 78 77 75 65 78 82 78 76 74 77 78 79 78 78 78 78 77 77 77 77 78 77 77 77 77 77 77 77 78 77 77 77 77 77 77
75 79 75 68 56 50 54 67 71 76 80 86 86 86 79 77 84 80 80 80 79 76 73 75 78 78 78 78 78 77 77 77 77 77 77 77 77 77 77 77 77 77 77 78 77 77 77 77 77
78 81 67 62 55 52 56 71 74 80 83 82 81 88 83 79 84 83 81 80 77 75 74 74 78 78 78 78 78 77 77 77 77 77 77 77 77 77 77 77 77 77 78 78 78 78 78 77 77
74 71 68 57 56 64 68 74 78 79 83 84 85 80 85 87 87 87 82 80 77 75 75 76 78 78 78 78 78 77 77 77 77 77 77 77 77 77 76 76 76 77 77 77 78 78 78 78 77
71 64 54 53 59 68 75 79 80 78 79 82 87 80 78 86 87 84 82 82 77 75 75 76 78 78 78 78 78 77 77 77 77 77 77 77 77 76 76 76 77 77 77 77 78 77 77 77 77
62 62 51 51 61 71 75 79 80 82 83 85 80 79 77 85 84 83 83 80 81 77 75 76 78 77 77 78 77 77 77 76 76 77 77 77 77 76 76 77 77 77 77 77 77 77 77 76 75
59 55 51 57 63 68 75 81 79 81 81 82 84 76 79 82 85 85 84 83 80 79 77 76 76 77 78 77 77 77 76 76 76 76 76 76 76 76 76 76 77 77 76 76 76 76 76 75 75
65 59 52 58 61 63 77 78 78 80 81 89 90 75 72 83 87 85 85 82 79 78 78 75 75 76 75 75 77 77 76 76 76 76 76 76 76 76 76 75 76 77 76 76 76 76 76 75 74
70 53 50 57 63 67 77 73 83 87 84 86 87 85 87 88 86 81 78 78 75 78 76 75 74 75 74 74 76 77 77 77 76 76 76 74 70 70 72 74 75 77 76 76 76 75 75 75 74
61 53 56 67 70 69 75 76 79 81 79 81 83 87 90 88 84 82 80 80 76 79 76 73 73 73 74 76 74 74 74 74 73 73 72 70 69 68 71 73 76 76 76 76 76 75 75 74 67
62 59 66 69 73 76 76 77 81 79 75 77 79 85 87 84 82 80 81 82 82 81 79 76 74 73 72 75 73 73 72 72 71 71 70 69 69 68 68 66 68 69 75 71 73 70 69 67 65
60 69 70 72 76 76 73 78 75 77 78 86 87 88 85 82 80 80 82 82 84 81 79 78 75 73 72 75 73 73 71 71 70 70 69 68 67 65 65 66 65 66 66 66 65 64 66 65 66
64 67 73 75 76 76 77 74 74 76 83 87 85 85 82 81 80 80 81 81 81 80 78 76 75 74 73 73 73 72 71 71 70 69 69 69 66 66 66 65 64 64 64 64 63 63 66 66 65
65 68 69 72 72 75 73 74 76 79 84 84 85 81 80 80 80 79 78 78 78 78 78 73 75 75 74 74 73 72 71 71 70 69 70 69 69 68 66 65 64 63 63 65 63 63 63 63 65
67 60 66 68 70 69 74 68 70 80 83 81 82 81 80 80 80 79 80 78 78 77 78 74 70 72 73 74 73 72 72 71 70 70 70 70 69 69 67 65 64 64 64 65 64 63 63 62 65
59 58 54 66 69 71 69 60 74 78 78 77 78 82 84 84 84 85 80 76 75 75 76 74 77 70 70 73 73 73 72 71 71 70 70 70 70 68 65 64 64 64 63 63 62 62 60 60 61
52 49 52 59 70 69 68 63 73 79 76 73 76 79 81 83 80 77 78 78 76 76 74 74 71 68 68 69 70 69 67 68 66 67 66 70 70 68 65 65 63 64 63 62 61 61 60 59 60
46 49 54 55 63 68 66 64 72 75 76 75 77 79 79 80 79 81 77 78 76 74 71 71 68 67 67 68 66 66 66 66 66 65 66 68 67 68 65 64 63 63 62 61 61 60 60 59 59
57 55 52 57 66 64 62 62 68 72 70 71 75 74 74 77 79 79 81 75 75 71 69 68 67 67 70 70 66 65 65 64 65 66 68 68 66 68 65 63 63 63 62 62 61 60 59 58 59
53 50 49 56 64 62 62 61 68 71 72 73 74 73 72 70 73 76 73 71 70 70 67 66 67 67 67 66 64 65 65 65 67 67 66 67 67 67 65 63 63 62 62 61 60 60 58 58 59
51 50 50 51 59 62 59 54 58 67 68 72 71 74 73 71 72 73 73 69 66 67 65 66 67 67 67 67 66 64 65 64 64 63 63 65 67 66 65 64 63 62 61 60 60 60 60 58 58
46 57 56 55 52 45 60 44 57 64 67 70 71 69 69 72 72 72 70 64 65 65 66 66 66 67 68 66 66 64 62 61 62 64 63 63 67 66 66 65 64 62 61 60 60 61 59 57 56
50 59 57 56 50 50 52 43 55 58 61 65 68 69 73 76 71 71 68 67 65 65 65 66 66 66 65 66 66 63 62 62 61 62 62 63 64 66 66 64 63 62 61 60 60 60 59 58 56
59 54 53 53 47 39 48 46 51 56 61 64 65 69 74 76 72 67 66 66 64 64 65 66 65 64 65 65 65 64 62 61 61 60 61 61 61 62 64 65 62 62 61 61 60 60 60 59 59
50 41 33 30 33 36 51 47 53 58 62 65 67 68 70 70 64 63 65 64 64 64 65 65 64 63 64 64 64 63 62 62 62 61 60 60 60 61 62 62 61 61 62 61 61 60 60 60 59
45 43 33 27 29 38 51 43 52 66 73 73 74 75 74 64 63 65 66 65 65 65 64 64 64 62 64 64 63 63 63 61 61 61 61 61 61 61 62 62 62 62 62 62 61 60 60 60 60
44 41 47 39 45 36 44 51 61 68 68 71 72 68 67 64 63 64 64 64 65 64 63 65 64 63 64 64 63 62 62 62 62 62 62 62 62 63 63 63 62 62 62 62 60 60 60 60 60
49 51 38 37 30 30 40 44 48 55 60 65 65 68 61 62 63 64 64 64 65 64 64 64 64 63 63 63 63 63 63 63 62 62 62 63 62 64 64 63 62 62 62 61 61 60 62 60 60
42 41 42 41 39 36 33 41 55 58 60 64 66 65 62 63 64 65 65 65 65 65 65 64 64 63 62 63 63 62 62 63 62 62 63 63 63 63 63 63 62 62 61 62 61 60 62 62 61
48 43 41 34 35 39 43 44 63 62 64 67 64 65 65 66 66 65 65 66 65 65 65 65 63 63 63 64 64 62 62 62 62 62 63 63 63 63 63 64 64 65 65 62 61 62 63 62 60